Year,Month,Day,Hour,Minute,Value (Times are PST for temperature in C)
2017,10,22,00,00,12.20
2017,10,22,00,01,12.20
2017,10,22,00,02,12.20
2017,10,22,00,03,12.20
2017,10,22,00,04,12.10
2017,10,22,00,05,12.10
2017,10,22,00,06,12.10
2017,10,22,00,07,12.10
2017,10,22,00,08,12.10
2017,10,22,00,09,12.10
2017,10,22,00,10,12.10
2017,10,22,00,11,12.10
2017,10,22,00,12,12.10
2017,10,22,00,13,12.00
2017,10,22,00,14,12.00
2017,10,22,00,15,12.00
2017,10,22,00,16,11.90
2017,10,22,00,17,11.90
2017,10,22,00,18,11.90
2017,10,22,00,19,11.90
2017,10,22,00,20,11.90
2017,10,22,00,21,11.90
2017,10,22,00,22,11.90
2017,10,22,00,23,11.90
2017,10,22,00,24,11.90
2017,10,22,00,25,11.90
2017,10,22,00,26,11.90
2017,10,22,00,27,11.90
2017,10,22,00,28,11.90
2017,10,22,00,29,11.90
2017,10,22,00,30,11.80
2017,10,22,00,31,11.80
2017,10,22,00,32,11.80
2017,10,22,00,33,11.80
2017,10,22,00,34,11.80
2017,10,22,00,35,11.80
2017,10,22,00,36,11.80
2017,10,22,00,37,11.70
2017,10,22,00,38,11.70
2017,10,22,00,39,11.70
2017,10,22,00,40,11.70
2017,10,22,00,41,11.70
2017,10,22,00,42,11.60
2017,10,22,00,43,11.60
2017,10,22,00,44,11.60
2017,10,22,00,45,11.60
2017,10,22,00,46,11.60
2017,10,22,00,47,11.60
2017,10,22,00,48,11.60
2017,10,22,00,49,11.60
2017,10,22,00,50,11.60
2017,10,22,00,51,11.60
2017,10,22,00,52,11.60
2017,10,22,00,53,11.60
2017,10,22,00,54,11.60
2017,10,22,00,55,11.60
2017,10,22,00,56,11.60
2017,10,22,00,57,11.60
2017,10,22,00,58,11.60
2017,10,22,00,59,11.60
2017,10,22,01,00,11.60
2017,10,22,01,01,11.60
2017,10,22,01,02,11.60
2017,10,22,01,03,11.60
2017,10,22,01,04,11.60
2017,10,22,01,05,11.60
2017,10,22,01,06,11.60
2017,10,22,01,07,11.70
2017,10,22,01,08,11.70
2017,10,22,01,09,11.70
2017,10,22,01,10,11.70
2017,10,22,01,11,11.70
2017,10,22,01,12,11.70
2017,10,22,01,13,11.70
2017,10,22,01,14,11.70
2017,10,22,01,15,11.70
2017,10,22,01,16,11.70
2017,10,22,01,17,11.70
2017,10,22,01,18,11.70
2017,10,22,01,19,11.70
2017,10,22,01,20,11.70
2017,10,22,01,21,11.70
2017,10,22,01,22,11.70
2017,10,22,01,23,11.70
2017,10,22,01,24,11.70
2017,10,22,01,25,11.70
2017,10,22,01,26,11.70
2017,10,22,01,27,11.70
2017,10,22,01,28,11.70
2017,10,22,01,29,11.70
2017,10,22,01,30,11.70
2017,10,22,01,31,11.70
2017,10,22,01,32,11.70
2017,10,22,01,33,11.70
2017,10,22,01,34,11.70
2017,10,22,01,35,11.80
2017,10,22,01,36,11.80
2017,10,22,01,37,11.80
2017,10,22,01,38,11.80
2017,10,22,01,39,11.80
2017,10,22,01,40,11.80
2017,10,22,01,41,11.80
2017,10,22,01,42,11.80
2017,10,22,01,43,11.80
2017,10,22,01,44,11.80
2017,10,22,01,45,11.90
2017,10,22,01,46,11.80
2017,10,22,01,47,11.80
2017,10,22,01,48,11.80
2017,10,22,01,49,11.80
2017,10,22,01,50,11.80
2017,10,22,01,51,11.80
2017,10,22,01,52,11.70
2017,10,22,01,53,11.70
2017,10,22,01,54,11.70
2017,10,22,01,55,11.70
2017,10,22,01,56,11.70
2017,10,22,01,57,11.60
2017,10,22,01,58,11.60
2017,10,22,01,59,11.60
2017,10,22,02,00,11.60
2017,10,22,02,01,11.60
2017,10,22,02,02,11.60
2017,10,22,02,03,11.60
2017,10,22,02,04,11.60
2017,10,22,02,05,11.60
2017,10,22,02,06,11.60
2017,10,22,02,07,11.60
2017,10,22,02,08,11.60
2017,10,22,02,09,11.60
2017,10,22,02,10,11.50
2017,10,22,02,11,11.50
2017,10,22,02,12,11.50
2017,10,22,02,13,11.50
2017,10,22,02,14,11.50
2017,10,22,02,15,11.40
2017,10,22,02,16,11.40
2017,10,22,02,17,11.40
2017,10,22,02,18,11.40
2017,10,22,02,19,11.40
2017,10,22,02,20,11.40
2017,10,22,02,21,11.40
2017,10,22,02,22,11.40
2017,10,22,02,23,11.30
2017,10,22,02,24,11.30
2017,10,22,02,25,11.30
2017,10,22,02,26,11.30
2017,10,22,02,27,11.30
2017,10,22,02,28,11.30
2017,10,22,02,29,11.30
2017,10,22,02,30,11.30
2017,10,22,02,31,11.30
2017,10,22,02,32,11.30
2017,10,22,02,33,11.30
2017,10,22,02,34,11.20
2017,10,22,02,35,11.20
2017,10,22,02,36,11.20
2017,10,22,02,37,11.20
2017,10,22,02,38,11.20
2017,10,22,02,39,11.20
2017,10,22,02,40,11.20
2017,10,22,02,41,11.10
2017,10,22,02,42,11.10
2017,10,22,02,43,11.10
2017,10,22,02,44,11.10
2017,10,22,02,45,11.10
2017,10,22,02,46,11.10
2017,10,22,02,47,11.10
2017,10,22,02,48,11.10
2017,10,22,02,49,11.10
2017,10,22,02,50,11.00
2017,10,22,02,51,11.00
2017,10,22,02,52,11.00
2017,10,22,02,53,10.90
2017,10,22,02,54,10.90
2017,10,22,02,55,10.90
2017,10,22,02,56,10.90
2017,10,22,02,57,10.90
2017,10,22,02,58,10.90
2017,10,22,02,59,10.90
2017,10,22,03,00,10.90
2017,10,22,03,01,10.90
2017,10,22,03,02,11.00
2017,10,22,03,03,11.00
2017,10,22,03,04,11.10
2017,10,22,03,05,11.10
2017,10,22,03,06,11.10
2017,10,22,03,07,11.10
2017,10,22,03,08,11.10
2017,10,22,03,09,11.10
2017,10,22,03,10,11.20
2017,10,22,03,11,11.20
2017,10,22,03,12,11.20
2017,10,22,03,13,11.20
2017,10,22,03,14,11.20
2017,10,22,03,15,11.20
2017,10,22,03,16,11.20
2017,10,22,03,17,11.20
2017,10,22,03,18,11.20
2017,10,22,03,19,11.20
2017,10,22,03,20,11.10
2017,10,22,03,21,11.20
2017,10,22,03,22,11.10
2017,10,22,03,23,11.20
2017,10,22,03,24,11.20
2017,10,22,03,25,11.20
2017,10,22,03,26,11.20
2017,10,22,03,27,11.20
2017,10,22,03,28,11.20
2017,10,22,03,29,11.20
2017,10,22,03,30,11.20
2017,10,22,03,31,11.20
2017,10,22,03,32,11.20
2017,10,22,03,33,11.20
2017,10,22,03,34,11.20
2017,10,22,03,35,11.20
2017,10,22,03,36,11.20
2017,10,22,03,37,11.20
2017,10,22,03,38,11.20
2017,10,22,03,39,11.20
2017,10,22,03,40,11.20
2017,10,22,03,41,11.20
2017,10,22,03,42,11.20
2017,10,22,03,43,11.20
2017,10,22,03,44,11.20
2017,10,22,03,45,11.20
2017,10,22,03,46,11.20
2017,10,22,03,47,11.30
2017,10,22,03,48,11.30
2017,10,22,03,49,11.30
2017,10,22,03,50,11.30
2017,10,22,03,51,11.30
2017,10,22,03,52,11.30
2017,10,22,03,53,11.30
2017,10,22,03,54,11.30
2017,10,22,03,55,11.30
2017,10,22,03,56,11.30
2017,10,22,03,57,11.30
2017,10,22,03,58,11.30
2017,10,22,03,59,11.30
2017,10,22,04,00,11.30
2017,10,22,04,01,11.30
2017,10,22,04,02,11.30
2017,10,22,04,03,11.30
2017,10,22,04,04,11.30
2017,10,22,04,05,11.30
2017,10,22,04,06,11.30
2017,10,22,04,07,11.20
2017,10,22,04,08,11.20
2017,10,22,04,09,11.20
2017,10,22,04,10,11.20
2017,10,22,04,11,11.30
2017,10,22,04,12,11.30
2017,10,22,04,13,11.20
2017,10,22,04,14,11.20
2017,10,22,04,15,11.20
2017,10,22,04,16,11.20
2017,10,22,04,17,11.20
2017,10,22,04,18,11.20
2017,10,22,04,19,11.20
2017,10,22,04,20,11.20
2017,10,22,04,21,11.20
2017,10,22,04,22,11.10
2017,10,22,04,23,11.10
2017,10,22,04,24,11.10
2017,10,22,04,25,11.20
2017,10,22,04,26,11.20
2017,10,22,04,27,11.20
2017,10,22,04,28,11.20
2017,10,22,04,29,11.20
2017,10,22,04,30,11.20
2017,10,22,04,31,11.20
2017,10,22,04,32,11.20
2017,10,22,04,33,11.20
2017,10,22,04,34,11.20
2017,10,22,04,35,11.20
2017,10,22,04,36,11.30
2017,10,22,04,37,11.30
2017,10,22,04,38,11.30
2017,10,22,04,39,11.30
2017,10,22,04,40,11.30
2017,10,22,04,41,11.30
2017,10,22,04,42,11.30
2017,10,22,04,43,11.30
2017,10,22,04,44,11.30
2017,10,22,04,45,11.30
2017,10,22,04,46,11.30
2017,10,22,04,47,11.30
2017,10,22,04,48,11.30
2017,10,22,04,49,11.30
2017,10,22,04,50,11.30
2017,10,22,04,51,11.30
2017,10,22,04,52,11.30
2017,10,22,04,53,11.30
2017,10,22,04,54,11.30
2017,10,22,04,55,11.30
2017,10,22,04,56,11.20
2017,10,22,04,57,11.20
2017,10,22,04,58,11.20
2017,10,22,04,59,11.20
2017,10,22,05,00,11.20
2017,10,22,05,01,11.20
2017,10,22,05,02,11.20
2017,10,22,05,03,11.20
2017,10,22,05,04,11.20
2017,10,22,05,05,11.20
2017,10,22,05,06,11.20
2017,10,22,05,07,11.20
2017,10,22,05,08,11.20
2017,10,22,05,09,11.20
2017,10,22,05,10,11.10
2017,10,22,05,11,11.10
2017,10,22,05,12,11.10
2017,10,22,05,13,11.10
2017,10,22,05,14,11.10
2017,10,22,05,15,11.10
2017,10,22,05,16,11.10
2017,10,22,05,17,11.10
2017,10,22,05,18,11.10
2017,10,22,05,19,11.20
2017,10,22,05,20,11.20
2017,10,22,05,21,11.20
2017,10,22,05,22,11.20
2017,10,22,05,23,11.20
2017,10,22,05,24,11.20
2017,10,22,05,25,11.10
2017,10,22,05,26,11.10
2017,10,22,05,27,11.10
2017,10,22,05,28,11.20
2017,10,22,05,29,11.20
2017,10,22,05,30,11.20
2017,10,22,05,31,11.20
2017,10,22,05,32,11.20
2017,10,22,05,33,11.20
2017,10,22,05,34,11.20
2017,10,22,05,35,11.20
2017,10,22,05,36,11.20
2017,10,22,05,37,11.20
2017,10,22,05,38,11.20
2017,10,22,05,39,11.30
2017,10,22,05,40,11.30
2017,10,22,05,41,11.30
2017,10,22,05,42,11.30
2017,10,22,05,43,11.30
2017,10,22,05,44,11.30
2017,10,22,05,45,11.30
2017,10,22,05,46,11.30
2017,10,22,05,47,11.30
2017,10,22,05,48,11.30
2017,10,22,05,49,11.20
2017,10,22,05,50,11.20
2017,10,22,05,51,11.20
2017,10,22,05,52,11.20
2017,10,22,05,53,11.20
2017,10,22,05,54,11.20
2017,10,22,05,55,11.10
2017,10,22,05,56,11.10
2017,10,22,05,57,11.10
2017,10,22,05,58,11.10
2017,10,22,05,59,11.10
2017,10,22,06,00,11.10
2017,10,22,06,01,11.10
2017,10,22,06,02,11.10
2017,10,22,06,03,11.10
2017,10,22,06,04,11.10
2017,10,22,06,05,11.10
2017,10,22,06,06,11.10
2017,10,22,06,07,11.10
2017,10,22,06,08,11.10
2017,10,22,06,09,11.10
2017,10,22,06,10,11.10
2017,10,22,06,11,11.20
2017,10,22,06,12,11.20
2017,10,22,06,13,11.20
2017,10,22,06,14,11.20
2017,10,22,06,15,11.20
2017,10,22,06,16,11.20
2017,10,22,06,17,11.20
2017,10,22,06,18,11.20
2017,10,22,06,19,11.20
2017,10,22,06,20,11.20
2017,10,22,06,21,11.20
2017,10,22,06,22,11.20
2017,10,22,06,23,11.20
2017,10,22,06,24,11.10
2017,10,22,06,25,11.10
2017,10,22,06,26,11.10
2017,10,22,06,27,11.10
2017,10,22,06,28,11.10
2017,10,22,06,29,11.10
2017,10,22,06,30,11.10
2017,10,22,06,31,11.10
2017,10,22,06,32,11.00
2017,10,22,06,33,11.00
2017,10,22,06,34,11.00
2017,10,22,06,35,11.00
2017,10,22,06,36,11.00
2017,10,22,06,37,11.00
2017,10,22,06,38,11.00
2017,10,22,06,39,11.00
2017,10,22,06,40,11.00
2017,10,22,06,41,11.00
2017,10,22,06,42,11.10
2017,10,22,06,43,11.10
2017,10,22,06,44,11.00
2017,10,22,06,45,11.10
2017,10,22,06,46,11.00
2017,10,22,06,47,11.00
2017,10,22,06,48,10.90
2017,10,22,06,49,10.90
2017,10,22,06,50,10.80
2017,10,22,06,51,10.80
2017,10,22,06,52,10.80
2017,10,22,06,53,10.80
2017,10,22,06,54,10.80
2017,10,22,06,55,10.80
2017,10,22,06,56,10.80
2017,10,22,06,57,10.80
2017,10,22,06,58,10.80
2017,10,22,06,59,10.80
2017,10,22,07,00,10.80
2017,10,22,07,01,10.80
2017,10,22,07,02,10.80
2017,10,22,07,03,10.80
2017,10,22,07,04,10.80
2017,10,22,07,05,10.80
2017,10,22,07,06,10.80
2017,10,22,07,07,10.90
2017,10,22,07,08,10.90
2017,10,22,07,09,10.80
2017,10,22,07,10,10.80
2017,10,22,07,11,10.80
2017,10,22,07,12,10.80
2017,10,22,07,13,10.80
2017,10,22,07,14,10.80
2017,10,22,07,15,10.80
2017,10,22,07,16,10.80
2017,10,22,07,17,10.70
2017,10,22,07,18,10.70
2017,10,22,07,19,10.70
2017,10,22,07,20,10.70
2017,10,22,07,21,10.70
2017,10,22,07,22,10.70
2017,10,22,07,23,10.70
2017,10,22,07,24,10.70
2017,10,22,07,25,10.70
2017,10,22,07,26,10.70
2017,10,22,07,27,10.70
2017,10,22,07,28,10.70
2017,10,22,07,29,10.70
2017,10,22,07,30,10.70
2017,10,22,07,31,10.70
2017,10,22,07,32,10.70
2017,10,22,07,33,10.70
2017,10,22,07,34,10.70
2017,10,22,07,35,10.60
2017,10,22,07,36,10.60
2017,10,22,07,37,10.60
2017,10,22,07,38,10.60
2017,10,22,07,39,10.60
2017,10,22,07,40,10.70
2017,10,22,07,41,10.70
2017,10,22,07,42,10.80
2017,10,22,07,43,10.80
2017,10,22,07,44,10.80
2017,10,22,07,45,10.80
2017,10,22,07,46,10.90
2017,10,22,07,47,10.90
2017,10,22,07,48,10.90
2017,10,22,07,49,10.90
2017,10,22,07,50,10.90
2017,10,22,07,51,10.90
2017,10,22,07,52,10.90
2017,10,22,07,53,10.80
2017,10,22,07,54,10.80
2017,10,22,07,55,10.70
2017,10,22,07,56,10.70
2017,10,22,07,57,10.70
2017,10,22,07,58,10.60
2017,10,22,07,59,10.60
2017,10,22,08,00,10.60
2017,10,22,08,01,10.50
2017,10,22,08,02,10.50
2017,10,22,08,03,10.50
2017,10,22,08,04,10.40
2017,10,22,08,05,10.40
2017,10,22,08,06,10.30
2017,10,22,08,07,10.30
2017,10,22,08,08,10.20
2017,10,22,08,09,10.20
2017,10,22,08,10,10.20
2017,10,22,08,11,10.10
2017,10,22,08,12,10.10
2017,10,22,08,13,10.10
2017,10,22,08,14,10.10
2017,10,22,08,15,10.00
2017,10,22,08,16,10.00
2017,10,22,08,17,9.90
2017,10,22,08,18,9.90
2017,10,22,08,19,9.90
2017,10,22,08,20,9.90
2017,10,22,08,21,9.80
2017,10,22,08,22,9.80
2017,10,22,08,23,9.80
2017,10,22,08,24,9.80
2017,10,22,08,25,9.80
2017,10,22,08,26,9.80
2017,10,22,08,27,9.80
2017,10,22,08,28,9.70
2017,10,22,08,29,9.70
2017,10,22,08,30,9.70
2017,10,22,08,31,9.70
2017,10,22,08,32,9.70
2017,10,22,08,33,9.70
2017,10,22,08,34,9.60
2017,10,22,08,35,9.60
2017,10,22,08,36,9.60
2017,10,22,08,37,9.60
2017,10,22,08,38,9.50
2017,10,22,08,39,9.50
2017,10,22,08,40,9.40
2017,10,22,08,41,9.40
2017,10,22,08,42,9.40
2017,10,22,08,43,9.40
2017,10,22,08,44,9.40
2017,10,22,08,45,9.40
2017,10,22,08,46,9.30
2017,10,22,08,47,9.30
2017,10,22,08,48,9.30
2017,10,22,08,49,9.30
2017,10,22,08,50,9.30
2017,10,22,08,51,9.40
2017,10,22,08,52,9.40
2017,10,22,08,53,9.40
2017,10,22,08,54,9.40
2017,10,22,08,55,9.50
2017,10,22,08,56,9.50
2017,10,22,08,57,9.50
2017,10,22,08,58,9.50
2017,10,22,08,59,9.50
2017,10,22,09,00,9.50
2017,10,22,09,01,9.50
2017,10,22,09,02,9.60
2017,10,22,09,03,9.60
2017,10,22,09,04,9.60
2017,10,22,09,05,9.60
2017,10,22,09,06,9.60
2017,10,22,09,07,9.60
2017,10,22,09,08,9.60
2017,10,22,09,09,9.60
2017,10,22,09,10,9.60
2017,10,22,09,11,9.70
2017,10,22,09,12,9.70
2017,10,22,09,13,9.70
2017,10,22,09,14,9.80
2017,10,22,09,15,9.80
2017,10,22,09,16,9.80
2017,10,22,09,17,9.80
2017,10,22,09,18,9.80
2017,10,22,09,19,9.80
2017,10,22,09,20,9.80
2017,10,22,09,21,9.80
2017,10,22,09,22,9.80
2017,10,22,09,23,9.80
2017,10,22,09,24,9.70
2017,10,22,09,25,9.70
2017,10,22,09,26,9.70
2017,10,22,09,27,9.70
2017,10,22,09,28,9.70
2017,10,22,09,29,9.70
2017,10,22,09,30,9.70
2017,10,22,09,31,9.80
2017,10,22,09,32,9.80
2017,10,22,09,33,9.80
2017,10,22,09,34,9.80
2017,10,22,09,35,9.90
2017,10,22,09,36,9.90
2017,10,22,09,37,10.00
2017,10,22,09,38,10.00
2017,10,22,09,39,10.10
2017,10,22,09,40,10.10
2017,10,22,09,41,10.20
2017,10,22,09,42,10.20
2017,10,22,09,43,10.30
2017,10,22,09,44,10.40
2017,10,22,09,45,10.40
2017,10,22,09,46,10.50
2017,10,22,09,47,10.60
2017,10,22,09,48,10.60
2017,10,22,09,49,10.70
2017,10,22,09,50,10.70
2017,10,22,09,51,10.70
2017,10,22,09,52,10.70
2017,10,22,09,53,10.80
2017,10,22,09,54,10.80
2017,10,22,09,55,10.80
2017,10,22,09,56,10.80
2017,10,22,09,57,10.80
2017,10,22,09,58,10.80
2017,10,22,09,59,10.80
2017,10,22,10,00,10.90
2017,10,22,10,01,11.00
2017,10,22,10,02,11.00
2017,10,22,10,03,11.10
2017,10,22,10,04,11.10
2017,10,22,10,05,11.20
2017,10,22,10,06,11.20
2017,10,22,10,07,11.10
2017,10,22,10,08,11.10
2017,10,22,10,09,11.10
2017,10,22,10,10,11.00
2017,10,22,10,11,11.00
2017,10,22,10,12,11.00
2017,10,22,10,13,10.90
2017,10,22,10,14,10.90
2017,10,22,10,15,10.90
2017,10,22,10,16,10.90
2017,10,22,10,17,10.90
2017,10,22,10,18,11.00
2017,10,22,10,19,11.00
2017,10,22,10,20,11.00
2017,10,22,10,21,11.10
2017,10,22,10,22,11.10
2017,10,22,10,23,11.20
2017,10,22,10,24,11.30
2017,10,22,10,25,11.30
2017,10,22,10,26,11.30
2017,10,22,10,27,11.40
2017,10,22,10,28,11.40
2017,10,22,10,29,11.40
2017,10,22,10,30,11.50
2017,10,22,10,31,11.60
2017,10,22,10,32,11.60
2017,10,22,10,33,11.60
2017,10,22,10,34,11.70
2017,10,22,10,35,11.70
2017,10,22,10,36,11.70
2017,10,22,10,37,11.80
2017,10,22,10,38,11.80
2017,10,22,10,39,11.80
2017,10,22,10,40,11.90
2017,10,22,10,41,12.00
2017,10,22,10,42,12.00
2017,10,22,10,43,12.10
2017,10,22,10,44,12.10
2017,10,22,10,45,12.10
2017,10,22,10,46,12.10
2017,10,22,10,47,12.20
2017,10,22,10,48,12.20
2017,10,22,10,49,12.20
2017,10,22,10,50,12.20
2017,10,22,10,51,12.30
2017,10,22,10,52,12.30
2017,10,22,10,53,12.30
2017,10,22,10,54,12.30
2017,10,22,10,55,12.40
2017,10,22,10,56,12.40
2017,10,22,10,57,12.50
2017,10,22,10,58,12.50
2017,10,22,10,59,12.60
2017,10,22,11,00,12.60
2017,10,22,11,01,12.70
2017,10,22,11,02,12.70
2017,10,22,11,03,12.70
2017,10,22,11,04,12.80
2017,10,22,11,05,12.80
2017,10,22,11,06,12.80
2017,10,22,11,07,12.80
2017,10,22,11,08,12.90
2017,10,22,11,09,12.90
2017,10,22,11,10,12.90
2017,10,22,11,11,13.00
2017,10,22,11,12,13.00
2017,10,22,11,13,13.00
2017,10,22,11,14,13.00
2017,10,22,11,15,13.00
2017,10,22,11,16,13.00
2017,10,22,11,17,13.00
2017,10,22,11,18,13.00
2017,10,22,11,19,13.00
2017,10,22,11,20,13.00
2017,10,22,11,21,13.00
2017,10,22,11,22,13.00
2017,10,22,11,23,13.00
2017,10,22,11,24,13.00
2017,10,22,11,25,13.00
2017,10,22,11,26,12.90
2017,10,22,11,27,12.90
2017,10,22,11,28,12.80
2017,10,22,11,29,12.70
2017,10,22,11,30,12.60
2017,10,22,11,31,12.50
2017,10,22,11,32,12.40
2017,10,22,11,33,12.30
2017,10,22,11,34,12.20
2017,10,22,11,35,12.20
2017,10,22,11,36,12.10
2017,10,22,11,37,12.00
2017,10,22,11,38,11.90
2017,10,22,11,39,11.90
2017,10,22,11,40,11.80
2017,10,22,11,41,11.70
2017,10,22,11,42,11.70
2017,10,22,11,43,11.60
2017,10,22,11,44,11.50
2017,10,22,11,45,11.50
2017,10,22,11,46,11.40
2017,10,22,11,47,11.40
2017,10,22,11,48,11.30
2017,10,22,11,49,11.30
2017,10,22,11,50,11.30
2017,10,22,11,51,11.30
2017,10,22,11,52,11.30
2017,10,22,11,53,11.30
2017,10,22,11,54,11.30
2017,10,22,11,55,11.40
2017,10,22,11,56,11.50
2017,10,22,11,57,11.50
2017,10,22,11,58,11.60
2017,10,22,11,59,11.60
2017,10,22,12,00,11.70
2017,10,22,12,01,11.70
2017,10,22,12,02,11.80
2017,10,22,12,03,11.80
2017,10,22,12,04,11.80
2017,10,22,12,05,11.80
2017,10,22,12,06,11.90
2017,10,22,12,07,11.90
2017,10,22,12,08,12.00
2017,10,22,12,09,12.00
2017,10,22,12,10,12.10
2017,10,22,12,11,12.20
2017,10,22,12,12,12.30
2017,10,22,12,13,12.30
2017,10,22,12,14,12.40
2017,10,22,12,15,12.40
2017,10,22,12,16,12.40
2017,10,22,12,17,12.40
2017,10,22,12,18,12.60
2017,10,22,12,19,12.60
2017,10,22,12,20,12.70
2017,10,22,12,21,12.70
2017,10,22,12,22,12.80
2017,10,22,12,23,12.90
2017,10,22,12,24,12.90
2017,10,22,12,25,13.00
2017,10,22,12,26,13.10
2017,10,22,12,27,13.10
2017,10,22,12,28,13.20
2017,10,22,12,29,13.20
2017,10,22,12,30,13.30
2017,10,22,12,31,13.30
2017,10,22,12,32,13.30
2017,10,22,12,33,13.40
2017,10,22,12,34,13.40
2017,10,22,12,35,13.40
2017,10,22,12,36,13.40
2017,10,22,12,37,13.40
2017,10,22,12,38,13.40
2017,10,22,12,39,13.50
2017,10,22,12,40,13.50
2017,10,22,12,41,13.60
2017,10,22,12,42,13.60
2017,10,22,12,43,13.60
2017,10,22,12,44,13.70
2017,10,22,12,45,13.70
2017,10,22,12,46,13.70
2017,10,22,12,47,13.80
2017,10,22,12,48,13.80
2017,10,22,12,49,13.80
2017,10,22,12,50,13.80
2017,10,22,12,51,13.80
2017,10,22,12,52,13.80
2017,10,22,12,53,13.80
2017,10,22,12,54,13.80
2017,10,22,12,55,13.90
2017,10,22,12,56,13.90
2017,10,22,12,57,13.90
2017,10,22,12,58,14.00
2017,10,22,12,59,14.00
2017,10,22,13,00,14.10
2017,10,22,13,01,14.10
2017,10,22,13,02,14.10
2017,10,22,13,03,14.20
2017,10,22,13,04,14.20
2017,10,22,13,05,14.20
2017,10,22,13,06,14.20
2017,10,22,13,07,14.20
2017,10,22,13,08,14.20
2017,10,22,13,09,14.20
2017,10,22,13,10,14.30
2017,10,22,13,11,14.30
2017,10,22,13,12,14.30
2017,10,22,13,13,14.30
2017,10,22,13,14,14.40
2017,10,22,13,15,14.40
2017,10,22,13,16,14.50
2017,10,22,13,17,14.50
2017,10,22,13,18,14.40
2017,10,22,13,19,14.40
2017,10,22,13,20,14.30
2017,10,22,13,21,14.20
2017,10,22,13,22,14.10
2017,10,22,13,23,14.00
2017,10,22,13,24,13.80
2017,10,22,13,25,13.70
2017,10,22,13,26,13.50
2017,10,22,13,27,13.20
2017,10,22,13,28,13.00
2017,10,22,13,29,12.80
2017,10,22,13,30,12.60
2017,10,22,13,31,12.40
2017,10,22,13,32,12.30
2017,10,22,13,33,12.10
2017,10,22,13,34,12.10
2017,10,22,13,35,12.00
2017,10,22,13,36,11.90
2017,10,22,13,37,11.80
2017,10,22,13,38,11.80
2017,10,22,13,39,11.70
2017,10,22,13,40,11.70
2017,10,22,13,41,11.70
2017,10,22,13,42,11.60
2017,10,22,13,43,11.60
2017,10,22,13,44,11.60
2017,10,22,13,45,11.60
2017,10,22,13,46,11.60
2017,10,22,13,47,11.60
2017,10,22,13,48,11.60
2017,10,22,13,49,11.70
2017,10,22,13,50,11.70
2017,10,22,13,51,11.80
2017,10,22,13,52,11.90
2017,10,22,13,53,11.90
2017,10,22,13,54,12.00
2017,10,22,13,55,12.10
2017,10,22,13,56,12.10
2017,10,22,13,57,12.20
2017,10,22,13,58,12.20
2017,10,22,13,59,12.30
2017,10,22,14,00,12.30
2017,10,22,14,01,12.30
2017,10,22,14,02,12.40
2017,10,22,14,03,12.40
2017,10,22,14,04,12.40
2017,10,22,14,05,12.50
2017,10,22,14,06,12.50
2017,10,22,14,07,12.60
2017,10,22,14,08,12.60
2017,10,22,14,09,12.60
2017,10,22,14,10,12.60
2017,10,22,14,11,12.60
2017,10,22,14,12,12.60
2017,10,22,14,13,12.60
2017,10,22,14,14,12.60
2017,10,22,14,15,12.60
2017,10,22,14,16,12.50
2017,10,22,14,17,12.50
2017,10,22,14,18,12.50
2017,10,22,14,19,12.40
2017,10,22,14,20,12.40
2017,10,22,14,21,12.40
2017,10,22,14,22,12.30
2017,10,22,14,23,12.30
2017,10,22,14,24,12.30
2017,10,22,14,25,12.30
2017,10,22,14,26,12.30
2017,10,22,14,27,12.30
2017,10,22,14,28,12.30
2017,10,22,14,29,12.30
2017,10,22,14,30,12.30
2017,10,22,14,31,12.30
2017,10,22,14,32,12.30
2017,10,22,14,33,12.30
2017,10,22,14,34,12.40
2017,10,22,14,35,12.40
2017,10,22,14,36,12.50
2017,10,22,14,37,12.50
2017,10,22,14,38,12.60
2017,10,22,14,39,12.60
2017,10,22,14,40,12.70
2017,10,22,14,41,12.70
2017,10,22,14,42,12.80
2017,10,22,14,43,12.80
2017,10,22,14,44,12.80
2017,10,22,14,45,12.90
2017,10,22,14,46,12.90
2017,10,22,14,47,12.90
2017,10,22,14,48,12.90
2017,10,22,14,49,13.00
2017,10,22,14,50,13.00
2017,10,22,14,51,13.10
2017,10,22,14,52,13.10
2017,10,22,14,53,13.10
2017,10,22,14,54,13.20
2017,10,22,14,55,13.30
2017,10,22,14,56,13.40
2017,10,22,14,57,13.50
2017,10,22,14,58,13.60
2017,10,22,14,59,13.70
2017,10,22,15,00,13.90
2017,10,22,15,01,14.00
2017,10,22,15,02,14.10
2017,10,22,15,03,14.30
2017,10,22,15,04,14.40
2017,10,22,15,05,14.50
2017,10,22,15,06,14.50
2017,10,22,15,07,14.60
2017,10,22,15,08,14.70
2017,10,22,15,09,14.70
2017,10,22,15,10,14.70
2017,10,22,15,11,14.70
2017,10,22,15,12,14.70
2017,10,22,15,13,14.70
2017,10,22,15,14,14.80
2017,10,22,15,15,14.80
2017,10,22,15,16,14.80
2017,10,22,15,17,14.80
2017,10,22,15,18,14.90
2017,10,22,15,19,14.90
2017,10,22,15,20,15.00
2017,10,22,15,21,15.00
2017,10,22,15,22,15.00
2017,10,22,15,23,15.10
2017,10,22,15,24,15.10
2017,10,22,15,25,15.10
2017,10,22,15,26,15.10
2017,10,22,15,27,15.00
2017,10,22,15,28,15.00
2017,10,22,15,29,14.90
2017,10,22,15,30,14.90
2017,10,22,15,31,14.90
2017,10,22,15,32,14.90
2017,10,22,15,33,14.90
2017,10,22,15,34,14.90
2017,10,22,15,35,14.80
2017,10,22,15,36,14.80
2017,10,22,15,37,14.80
2017,10,22,15,38,14.80
2017,10,22,15,39,14.80
2017,10,22,15,40,14.80
2017,10,22,15,41,14.90
2017,10,22,15,42,14.90
2017,10,22,15,43,14.90
2017,10,22,15,44,14.90
2017,10,22,15,45,14.90
2017,10,22,15,46,14.80
2017,10,22,15,47,14.80
2017,10,22,15,48,14.70
2017,10,22,15,49,14.60
2017,10,22,15,50,14.60
2017,10,22,15,51,14.50
2017,10,22,15,52,14.50
2017,10,22,15,53,14.40
2017,10,22,15,54,14.40
2017,10,22,15,55,14.40
2017,10,22,15,56,14.40
2017,10,22,15,57,14.40
2017,10,22,15,58,14.40
2017,10,22,15,59,14.30
2017,10,22,16,00,14.20
2017,10,22,16,01,14.10
2017,10,22,16,02,14.00
2017,10,22,16,03,13.90
2017,10,22,16,04,13.80
2017,10,22,16,05,13.80
2017,10,22,16,06,13.70
2017,10,22,16,07,13.70
2017,10,22,16,08,13.70
2017,10,22,16,09,13.60
2017,10,22,16,10,13.50
2017,10,22,16,11,13.50
2017,10,22,16,12,13.40
2017,10,22,16,13,13.40
2017,10,22,16,14,13.30
2017,10,22,16,15,13.30
2017,10,22,16,16,13.30
2017,10,22,16,17,13.20
2017,10,22,16,18,13.20
2017,10,22,16,19,13.20
2017,10,22,16,20,13.20
2017,10,22,16,21,13.20
2017,10,22,16,22,13.10
2017,10,22,16,23,13.10
2017,10,22,16,24,13.10
2017,10,22,16,25,13.10
2017,10,22,16,26,13.10
2017,10,22,16,27,13.10
2017,10,22,16,28,13.00
2017,10,22,16,29,13.00
2017,10,22,16,30,12.90
2017,10,22,16,31,12.90
2017,10,22,16,32,12.90
2017,10,22,16,33,12.90
2017,10,22,16,34,12.80
2017,10,22,16,35,12.80
2017,10,22,16,36,12.70
2017,10,22,16,37,12.60
2017,10,22,16,38,12.50
2017,10,22,16,39,12.40
2017,10,22,16,40,12.30
2017,10,22,16,41,12.10
2017,10,22,16,42,12.00
2017,10,22,16,43,11.90
2017,10,22,16,44,11.80
2017,10,22,16,45,11.70
2017,10,22,16,46,11.60
2017,10,22,16,47,11.50
2017,10,22,16,48,11.40
2017,10,22,16,49,11.30
2017,10,22,16,50,11.30
2017,10,22,16,51,11.20
2017,10,22,16,52,11.20
2017,10,22,16,53,11.20
2017,10,22,16,54,11.10
2017,10,22,16,55,11.10
2017,10,22,16,56,11.10
2017,10,22,16,57,11.10
2017,10,22,16,58,11.10
2017,10,22,16,59,11.10
2017,10,22,17,00,11.10
2017,10,22,17,01,11.10
2017,10,22,17,02,11.10
2017,10,22,17,03,11.10
2017,10,22,17,04,11.10
2017,10,22,17,05,11.10
2017,10,22,17,06,11.00
2017,10,22,17,07,11.00
2017,10,22,17,08,11.00
2017,10,22,17,09,11.00
2017,10,22,17,10,11.00
2017,10,22,17,11,11.00
2017,10,22,17,12,11.00
2017,10,22,17,13,11.00
2017,10,22,17,14,11.00
2017,10,22,17,15,11.10
2017,10,22,17,16,11.10
2017,10,22,17,17,11.10
2017,10,22,17,18,11.10
2017,10,22,17,19,11.10
2017,10,22,17,20,11.10
2017,10,22,17,21,11.10
2017,10,22,17,22,11.10